TimeEDT,TemperatureF,Dew PointF,Humidity,Sea Level PressureIn,VisibilityMPH,Wind Direction,Wind SpeedMPH,Gust SpeedMPH,PrecipitationIn,Events,Conditions,WindDirDegrees,DateUTC
12:53 AM,75.0,73.0,94,30.19,10.0,South,4.6,-,N/A,,Overcast,190,2013-07-15 04:53:00
1:53 AM,75.0,73.0,94,30.18,10.0,Calm,Calm,-,N/A,,Mostly Cloudy,0,2013-07-15 05:53:00
2:53 AM,73.9,72.0,93,30.17,10.0,Calm,Calm,-,N/A,,Overcast,0,2013-07-15 06:53:00
3:53 AM,73.9,73.0,97,30.17,9.0,Calm,Calm,-,N/A,,Scattered Clouds,0,2013-07-15 07:53:00
4:20 AM,71.6,71.6,100,30.17,1.5,Calm,Calm,-,N/A,,Clear,0,2013-07-15 08:20:00
4:31 AM,71.6,71.6,100,30.17,0.8,Calm,Calm,-,N/A,,Partly Cloudy,0,2013-07-15 08:31:00
4:42 AM,71.6,71.6,100,30.17,2.0,Calm,Calm,-,N/A,,Mostly Cloudy,0,2013-07-15 08:42:00
4:50 AM,71.6,71.6,100,30.17,5.0,Calm,Calm,-,N/A,,Mostly Cloudy,0,2013-07-15 08:50:00
4:53 AM,73.0,72.0,96,30.17,6.0,Calm,Calm,-,N/A,,Overcast,0,2013-07-15 08:53:00
5:53 AM,73.0,72.0,96,30.17,6.0,Calm,Calm,-,N/A,,Overcast,0,2013-07-15 09:53:00
6:53 AM,75.9,73.9,94,30.18,10.0,Calm,Calm,-,N/A,,Overcast,0,2013-07-15 10:53:00
7:53 AM,82.0,73.0,74,30.18,10.0,Calm,Calm,-,N/A,,Clear,0,2013-07-15 11:53:00
8:53 AM,84.9,73.0,67,30.17,10.0,Calm,Calm,-,N/A,,Clear,0,2013-07-15 12:53:00
9:53 AM,87.1,72.0,61,30.17,10.0,Variable,3.5,-,N/A,,Clear,0,2013-07-15 13:53:00
10:53 AM,89.1,71.1,55,30.16,10.0,Calm,Calm,-,N/A,,Partly Cloudy,0,2013-07-15 14:53:00
11:53 AM,89.1,69.1,52,30.15,10.0,Variable,3.5,-,N/A,,Partly Cloudy,0,2013-07-15 15:53:00
12:53 PM,88.0,69.1,53,30.14,10.0,NNE,4.6,-,N/A,,Mostly Cloudy,30,2013-07-15 16:53:00
1:53 PM,91.0,70.0,50,30.13,10.0,NNE,9.2,-,N/A,,Partly Cloudy,30,2013-07-15 17:53:00
2:53 PM,89.1,73.0,59,30.12,10.0,SE,10.4,-,N/A,,Mostly Cloudy,140,2013-07-15 18:53:00
3:53 PM,88.0,72.0,59,30.11,10.0,SE,8.1,-,N/A,,Scattered Clouds,130,2013-07-15 19:53:00
4:53 PM,88.0,72.0,59,30.10,10.0,ESE,6.9,-,N/A,,Mostly Cloudy,120,2013-07-15 20:53:00
5:53 PM,87.1,72.0,61,30.10,10.0,SSE,6.9,-,N/A,,Scattered Clouds,150,2013-07-15 21:53:00
6:53 PM,86.0,71.1,61,30.10,10.0,South,5.8,-,N/A,,Scattered Clouds,190,2013-07-15 22:53:00
7:53 PM,82.0,71.1,69,30.10,10.0,SE,4.6,-,N/A,,Scattered Clouds,130,2013-07-15 23:53:00
8:53 PM,79.0,73.0,82,30.11,10.0,South,4.6,-,N/A,,Scattered Clouds,180,2013-07-16 00:53:00
9:53 PM,75.0,73.0,94,30.12,10.0,SSW,4.6,-,N/A,,Clear,210,2013-07-16 01:53:00
10:53 PM,75.0,73.0,94,30.12,8.0,Calm,Calm,-,N/A,,Clear,0,2013-07-16 02:53:00
11:53 PM,73.9,72.0,93,30.11,8.0,Calm,Calm,-,N/A,,Clear,0,2013-07-16 03:53:00